Tiempo atmosférico en la estación meteorológica de Piornal, Cáceres (1175 m.)



Fecha
DESCASC
Temp. máxima en grados centígrados (hora)
DESCASC
Temp. mínima en grados centígrados (hora)
DESCASC
Temp. media en grados centígrados
DESCASC
Racha de viento máxima en m/sg (hora)
DESCASC
Velocidad máxima media en intervalos de 10 minutos(hora)
DESCASC
Precipitaciones diarias en mm
DESCASC
Precipitaciones de 00:00 a 06:00 en mm
DESCASC
Precipitaciones de 06:00 a 12:00 en mm
DESCASC
Precipitaciones de 12:00 a 18:00 en mm
DESCASC
Precipitaciones de 18:00 a 24:00 en mm
DESCASC
22-01-2020 3 (23:00) 1 (00:50) 2 15.28 (08:20) 7.78 (12:40) 2.4 0.8 1.2 0.4 0
21-01-2020 3.9 (11:40) -0.4 (09:00) 1.8 13.61 (23:10) 6.11 (23:50) 0.2 0 0 0 0.2
20-01-2020 2.4 (12:20) -4.9 (08:10) -1.3 19.72 (00:20) 10 (00:10) 0 0 0 0 0
19-01-2020 5 (14:30) -2.5 (-00:0) 1.3 29.17 (20:30) 14.44 (19:20) 0.2 0 0.2 0 0
18-01-2020 6.3 (16:00) 1.9 (00:00) 4.1 13.89 (20:00) 6.94 (20:10) 9 4.4 3.2 0.6 0.8
17-01-2020 7.2 (14:40) 3.4 (00:00) 5.3 9.17 (10:10) 5.28 (10:10) 0.2 0 0 0.2 0
16-01-2020 8 (14:40) 4 (00:00) 6 10.28 (20:20) 4.72 (16:20) 8.4 3.8 1.6 0 3
15-01-2020 6 (19:40) 2.7 (00:00) 4.4 11.94 (03:30) 4.44 (11:10) 22.2 0 10.6 7.8 3.8
14-01-2020 4.6 (12:20) -1.6 (-00:0) 1.5 8.61 (21:40) 3.61 (21:40) 1.8 0 0 0 1.8
13-01-2020 8.6 (15:40) -1.3 (-00:0) 3.7 6.94 (02:10) 3.61 (02:10) 0 0 0 0 0
12-01-2020 11.5 (16:10) 0.2 (00:00) 5.9 4.72 (23:20) 2.22 (06:40) 0 0 0 0 0
11-01-2020 9.5 (15:20) -0.6 (-00:0) 4.4 8.06 (10:40) 3.61 (10:30) 0 0 0 0 0
10-01-2020 8 (13:40) 1.1 (00:00) 4.6 15 (01:10) 7.5 (01:10) 0 0 0 0 0
09-01-2020 12.8 (14:10) 3.6 (00:00) 8.2 12.22 (19:20) 6.67 (19:20) 0 0 0 0 0
08-01-2020 15.8 (14:40) 8.5 (00:00) 12.2 7.22 (12:40) 4.72 (12:30) 0 0 0 0 0
07-01-2020 16.7 (14:30) 6.8 (00:00) 11.8 4.72 (15:30) 2.78 (15:30) 0 0 0 0 0
06-01-2020 14.7 (14:00) 3.7 (00:00) 9.2 5.28 (03:00) 3.33 (03:00) 0 0 0 0 0
05-01-2020 11.1 (14:00) 2.8 (00:00) 7 10.83 (01:30) 5.83 (01:00) 0 0 0 0 0
04-01-2020 8.6 (14:30) 1.6 (00:00) 5.1 11.67 (23:10) 6.11 (23:00) 0 0 0 0 0
03-01-2020 10.4 (15:20) 2.4 (00:00) 6.4 9.17 (20:10) 4.44 (14:00) 0 0 0 0 0
02-01-2020 14.7 (13:40) 3.5 (00:00) 9.1 4.17 (14:40) 2.22 (13:50) 0 0 0 0 0
01-01-2020 16.3 (12:50) 6.1 (00:00) 11.2 3.33 (14:30) 1.67 (13:10) 0 0 0 0 0
31-12-2019 18.1 (12:50) 6.7 (00:00) 12.4 5.28 (00:30) 2.78 (00:30) 0 0 0 0 0
30-12-2019 18.4 (13:20) 6.6 (00:00) 12.5 4.17 (01:00) 2.5 (01:10) 0 0 0 0 0
29-12-2019 18.4 (15:30) 8.2 (00:00) 13.3 5.83 (00:40) 3.61 (00:10) 0 0 0 0 0
28-12-2019 16.6 (16:40) 9.3 (00:00) 13 8.89 (11:50) 5.28 (12:10) 0 0 0 0 0
27-12-2019 13.6 (15:20) 5.9 (00:00) 9.8 10.83 (01:50) 5.83 (00:10) 0 0 0 0 0
26-12-2019 15 (13:40) 6.7 (00:00) 10.8 9.44 (19:00) 5.83 (19:00) 0 0 0 0 0
25-12-2019 16 (14:20) 7.8 (00:00) 11.9 9.72 (03:30) 5.56 (03:20) 0 0 0 0 0

Gráficas

Temp. máximas Temp. mínimas Temp. medias Precipitaciones Rachas de viento máximas Velocidades máximas media en intervalos de 10 minutos

Datos horarios

Fecha y hora oficial Temperatura (ºC) Velocidad del viento (km/h) Dirección del viento Racha (km/h) Dirección de racha Precipitación (mm) Presión (hPa) Tendencia (hPa) Humedad (%)
2020-01-23 23:00:00 2.5 16 Sudeste 41 Sudeste 1.8 -- -- 100
2020-01-23 22:00:00 2.1 15 Este 40 Sudeste 4.8 -- -- 100
2020-01-23 21:00:00 2.2 15 Este 32 Sudeste 4.8 -- -- 100
2020-01-23 20:00:00 2.2 17 Este 35 Sudeste 3.2 -- -- 100
2020-01-23 19:00:00 2 13 Este 36 Este 1.8 -- -- 100
2020-01-23 18:00:00 1.7 16 Este 35 Sudeste 2.6 -- -- 100
2020-01-23 17:00:00 1.4 19 Este 38 Este 3.8 -- -- 100
2020-01-23 16:00:00 1.2 15 Este 35 Este 3.8 -- -- 100
2020-01-23 15:00:00 1.3 15 Este 36 Este 3.4 -- -- 100
2020-01-23 14:00:00 0.9 17 Este 39 Este 2 -- -- 100
2020-01-23 13:00:00 0.3 20 Este 37 Este 1.4 -- -- 100
2020-01-23 12:00:00 0.2 18 Este 35 Este 1 -- -- 100
2020-01-23 11:00:00 0.5 17 Este 39 Este 1.4 -- -- 100
2020-01-23 10:00:00 0.5 18 Este 36 Este 1.2 -- -- 100
2020-01-23 09:00:00 0.3 13 Este 41 Este 0.8 -- -- 100
2020-01-23 08:00:00 0.5 18 Este 41 Este 1.2 -- -- 100
2020-01-23 07:00:00 0.8 18 Este 48 Este 0.6 -- -- 100
2020-01-23 06:00:00 1 19 Este 46 Nordeste 1 -- -- 100
2020-01-23 05:00:00 1.1 17 Este 45 Este 1 -- -- 100
2020-01-23 04:00:00 0.9 14 Este 45 Este 1.4 -- -- 100
2020-01-23 03:00:00 1 12 Este 37 Este 0.8 -- -- 100
2020-01-23 02:00:00 2 17 Este 33 Este 0 -- -- 99
2020-01-23 01:00:00 2.7 15 Este 39 Este 0 -- -- 96
2020-01-23 00:00:00 2.9 11 Este 30 Este 0 -- -- 96
2020-01-22 23:00:00 3 12 Este 29 Este 0 -- -- 94
2020-01-22 22:00:00 2.9 15 Este 33 Este 0 -- -- 92
2020-01-22 21:00:00 2.7 11 Este 30 Este 0 -- -- 92
2020-01-22 20:00:00 2.5 10 Este 27 Este 0 -- -- 91
2020-01-22 19:00:00 2.2 9 Este 24 Este 0 -- -- 94
2020-01-22 18:00:00 2.3 9 Este 33 Este 0 -- -- 96
2020-01-22 17:00:00 2.5 13 Este 32 Este 0 -- -- 100
2020-01-22 16:00:00 2.1 9 Este 41 Este 0 -- -- 100
2020-01-22 15:00:00 1.9 15 Este 36 Este 0 -- -- 100
2020-01-22 14:00:00 1.8 21 Este 54 Este 0 -- -- 100
2020-01-22 13:00:00 1.6 25 Este 54 Este 0.4 -- -- 100
2020-01-22 12:00:00 1.4 23 Este 53 Nordeste 0 -- -- 100
2020-01-22 11:00:00 1.2 24 Este 50 Este 0.6 -- -- 100
2020-01-22 10:00:00 1.5 20 Este 54 Este 0 -- -- 100
2020-01-22 09:00:00 1.5 23 Este 55 Este 0.2 -- -- 100
2020-01-22 08:00:00 1.3 16 Nordeste 47 Nordeste 0.4 -- -- 100
2020-01-22 07:00:00 1.7 19 Nordeste 40 Este 0 -- -- 100
2020-01-22 06:00:00 1.5 19 Nordeste 42 Nordeste 0.2 -- -- 100
2020-01-22 05:00:00 1.6 20 Este 50 Este 0 -- -- 100
2020-01-22 04:00:00 1.6 21 Este 48 Este 0.2 -- -- 100
2020-01-22 03:00:00 1.6 17 Este 39 Nordeste 0.2 -- -- 100
2020-01-22 02:00:00 1.7 17 Nordeste 41 Nordeste 0 -- -- 100
2020-01-22 01:00:00 1.1 17 Este 37 Nordeste 0.2 -- -- 100
2020-01-22 00:00:00 1.4 20 Nordeste 49 Nordeste 0.2 -- -- 100
2020-01-21 23:00:00 1.2 21 Este 42 Este 0 -- -- 100
2020-01-21 22:00:00 1.5 13 Nordeste 25 Nordeste 0 -- -- 98
2020-01-21 21:00:00 1.8 2 Nordeste 8 Nordeste 0 -- -- 96
2020-01-21 20:00:00 2.1 2 Sudeste 23 Nordeste 0 -- -- 91
2020-01-21 19:00:00 1.9 3 Nordeste 9 Nordeste 0 -- -- 90
2020-01-21 18:00:00 2.8 0 Calma 8 Nordeste 0 -- -- 88
2020-01-21 17:00:00 3.1 0 Calma 10 Noroeste 0 -- -- 81
2020-01-21 16:00:00 3.6 5 Norte 12 Este 0 -- -- 79
2020-01-21 15:00:00 3.7 4 Este 16 Nordeste 0 -- -- 85
2020-01-21 14:00:00 2.5 6 Este 21 Este 0 -- -- 92
2020-01-21 13:00:00 3.5 6 Este 19 Este 0 -- -- 79
2020-01-21 12:00:00 3.1 6 Nordeste 20 Norte 0 -- -- 80
2020-01-21 11:00:00 1.6 5 Noroeste 8 Noroeste 0 -- -- 86
2020-01-21 10:00:00 1.2 4 Este 12 Noroeste 0 -- -- 88
2020-01-21 09:00:00 -0.4 7 Norte 14 Norte 0 -- -- 89
2020-01-21 08:00:00 0.6 5 Nordeste 16 Este 0 -- -- 90
2020-01-21 07:00:00 0.7 5 Norte 14 Norte 0 -- -- 88
2020-01-21 06:00:00 0.3 5 Norte 13 Norte 0 -- -- 91
2020-01-21 05:00:00 0.8 3 Norte 22 Norte 0 -- -- 91
2020-01-21 04:00:00 1 8 Nordeste 21 Este 0 -- -- 92
2020-01-21 03:00:00 0.7 6 Norte 22 Este 0 -- -- 88
2020-01-21 02:00:00 0.2 8 Este 32 Nordeste 0 -- -- 85
2020-01-21 01:00:00 0.4 3 Este 15 Este 0 -- -- 83
2020-01-21 00:00:00 0.3 3 Oeste 9 Oeste 0 -- -- 82
2020-01-20 23:00:00 -0.1 0 Calma 8 Nordeste 0 -- -- 82
2020-01-20 22:00:00 -0.2 3 Norte 6 Nordeste 0 -- -- 80
2020-01-20 21:00:00 -0.2 0 Calma 6 Noroeste 0 -- -- 81
2020-01-20 20:00:00 -0.3 3 Noroeste 9 Norte 0 -- -- 80
2020-01-20 19:00:00 -0.5 4 Norte 9 Noroeste 0 -- -- 79
2020-01-20 18:00:00 -0.5 5 Norte 12 Noroeste 0 -- -- 77
2020-01-20 17:00:00 0.4 5 Nordeste 17 Este 0 -- -- 71
2020-01-20 16:00:00 1.2 10 Este 27 Este 0 -- -- 64
2020-01-20 15:00:00 1.9 12 Este 23 Este 0 -- -- 59
2020-01-20 14:00:00 1.3 5 Nordeste 17 Nordeste 0 -- -- 61
2020-01-20 13:00:00 2 10 Nordeste 40 Este 0 -- -- 58
2020-01-20 12:00:00 1.7 10 Nordeste 26 Nordeste 0 -- -- 47
2020-01-20 11:00:00 -1.4 4 Noroeste 15 Noroeste 0 -- -- 56
2020-01-20 10:00:00 -2.8 8 Norte 16 Norte 0 -- -- 59
2020-01-20 09:00:00 -4.6 6 Norte 17 Nordeste 0 -- -- 65
2020-01-20 08:00:00 -4.8 6 Norte 13 Noroeste 0 -- -- 65
2020-01-20 07:00:00 -3.7 7 Norte 18 Norte 0 -- -- 60
2020-01-20 06:00:00 -3.3 6 Norte 28 Norte 0 -- -- 59
2020-01-20 05:00:00 -2 17 Nordeste 32 Norte 0 -- -- 53
2020-01-20 04:00:00 -1.7 18 Nordeste 41 Norte 0 -- -- 51
2020-01-20 03:00:00 -1.5 21 Nordeste 50 Norte 0 -- -- 50
2020-01-20 02:00:00 -2.1 23 Norte 56 Norte 0 -- -- 60
2020-01-20 01:00:00 -2.6 26 Norte 71 Norte 0 -- -- 64
2020-01-20 00:00:00 -2.5 37 Norte 73 Norte 0 -- -- 64
2020-01-19 23:00:00 -2.3 37 Norte 83 Norte 0 -- -- 60
2020-01-19 22:00:00 -1.8 42 Norte 86 Norte 0 -- -- 57
2020-01-19 21:00:00 -1.3 45 Norte 105 Norte 0 -- -- 49
2020-01-19 20:00:00 -0.4 46 Norte 95 Norte 0 -- -- 53
2020-01-19 19:00:00 0.7 45 Norte 99 Norte 0 -- -- 56
2020-01-19 18:00:00 2.4 41 Norte 94 Nordeste 0 -- -- 48
2020-01-19 17:00:00 3.1 17 Nordeste 70 Norte 0 -- -- 52
2020-01-19 16:00:00 3.6 30 Norte 72 Noroeste 0 -- -- 55
2020-01-19 15:00:00 4.5 26 Norte 55 Nordeste 0 -- -- 58
2020-01-19 14:00:00 4.6 13 Norte 45 Nordeste 0 -- -- 64
2020-01-19 13:00:00 2 24 Nordeste 66 Nordeste 0 -- -- 70
2020-01-19 12:00:00 1.5 17 Norte 58 Nordeste 0 -- -- 86
2020-01-19 11:00:00 1.3 33 Norte 73 Nordeste 0 -- -- 87
2020-01-19 10:00:00 1.7 35 Norte 69 Norte 0 -- -- 88
2020-01-19 09:00:00 1.4 33 Norte 60 Norte 0 -- -- 90
2020-01-19 08:00:00 1.3 25 Nordeste 50 Norte 0 -- -- 89
2020-01-19 07:00:00 1.3 19 Norte 42 Norte 0.2 -- -- 90
2020-01-19 06:00:00 1.2 5 Norte 49 Noroeste 0 -- -- 93
2020-01-19 05:00:00 1.8 24 Noroeste 42 Noroeste 0 -- -- 98
2020-01-19 04:00:00 2 14 Noroeste 48 Noroeste 0 -- -- 99
2020-01-19 03:00:00 2.1 24 Noroeste 43 Noroeste 0 -- -- 100
2020-01-19 02:00:00 2 6 Oeste 21 Oeste 0 -- -- 100
2020-01-19 01:00:00 1.9 4 Sudoeste 13 Sudoeste 0 -- -- 100
2020-01-19 00:00:00 1.9 8 Sudoeste 39 Noroeste 0 -- -- 100
2020-01-18 23:00:00 2.9 14 Oeste 33 Oeste 0 -- -- 100
2020-01-18 22:00:00 3.4 11 Sudoeste 40 Sudoeste 0.6 -- -- 100
2020-01-18 21:00:00 5.2 23 Sudoeste 48 Sudoeste 0 -- -- 100
2020-01-18 20:00:00 5.8 23 Oeste 50 Sudoeste 0.2 -- -- 100
2020-01-18 19:00:00 6 22 Sudoeste 40 Sudoeste 0 -- -- 100
2020-01-18 18:00:00 6 15 Sudoeste 36 Sudoeste 0.2 -- -- 100
2020-01-18 17:00:00 6.2 15 Sudoeste 28 Sudoeste 0 -- -- 100
2020-01-18 16:00:00 6.3 8 Sudoeste 16 Sur 0.2 -- -- 100
2020-01-18 15:00:00 6.1 6 Sur 13 Sudoeste 0.2 -- -- 100
2020-01-18 14:00:00 5.2 0 Calma 21 Este 0 -- -- 100
2020-01-18 13:00:00 4.6 10 Este 28 Este 0 -- -- 100
2020-01-18 12:00:00 4 14 Este 32 Este 0.2 -- -- 100
2020-01-18 11:00:00 3.8 17 Este 37 Este 0 -- -- 100
2020-01-18 10:00:00 3.5 17 Este 32 Este 0.4 -- -- 100
2020-01-18 09:00:00 3.5 14 Este 28 Este 0.4 -- -- 100
2020-01-18 08:00:00 4 8 Este 21 Este 0.6 -- -- 100
2020-01-18 07:00:00 4 3 Sudeste 15 Sudeste 1.6 -- -- 100
2020-01-18 06:00:00 4.1 4 Sur 17 Sudeste 2.6 -- -- 100
2020-01-18 05:00:00 4.1 5 Sudeste 13 Sur 1.6 -- -- 100
2020-01-18 04:00:00 4.2 6 Sudeste 15 Sudeste 0.2 -- -- 99
2020-01-18 03:00:00 3.8 4 Sudeste 12 Sudeste 0 -- -- 99
2020-01-18 02:00:00 3.3 0 Calma 6 Sudeste 0 -- -- 97
2020-01-18 01:00:00 3.1 4 Sudeste 12 Sudoeste 0 -- -- 97
2020-01-18 00:00:00 3.6 4 Sudoeste 14 Este 0 -- -- 98
2020-01-17 23:00:00 3.5 5 Sudeste 14 Este 0 -- -- 98
2020-01-17 22:00:00 3.8 7 Este 13 Este 0 -- -- 97
2020-01-17 21:00:00 3.8 5 Este 11 Este 0 -- -- 96
2020-01-17 20:00:00 3.4 0 Calma 4 Sudoeste 0 -- -- 97
2020-01-17 19:00:00 3.8 0 Calma 5 Sudoeste 0 -- -- 93
2020-01-17 18:00:00 6.1 3 Sur 11 Sudoeste 0 -- -- 83
2020-01-17 17:00:00 7.1 7 Sudoeste 19 Sudoeste 0 -- -- 83
2020-01-17 16:00:00 7 9 Oeste 20 Oeste 0 -- -- 84
2020-01-17 15:00:00 6.5 6 Oeste 22 Oeste 0 -- -- 87
2020-01-17 14:00:00 6.7 11 Oeste 21 Oeste 0 -- -- 100
2020-01-17 13:00:00 5 8 Oeste 15 Oeste 0.2 -- -- 100
2020-01-17 12:00:00 5.3 8 Oeste 30 Sudoeste 0 -- -- 100
2020-01-17 11:00:00 4.6 16 Oeste 33 Sudoeste 0 -- -- 100
2020-01-17 10:00:00 4.2 17 Sudoeste 31 Sudoeste 0 -- -- 100
2020-01-17 09:00:00 3.9 16 Sudoeste 32 Sudoeste 0 -- -- 100
2020-01-17 08:00:00 3.7 14 Sudoeste 29 Sudoeste 0 -- -- 100
2020-01-17 07:00:00 3.6 15 Sudoeste 31 Sudoeste 0 -- -- 100
2020-01-17 06:00:00 3.5 11 Sudoeste 24 Sudoeste 0 -- -- 100
2020-01-17 05:00:00 3.5 12 Sudoeste 28 Oeste 0 -- -- 100
2020-01-17 04:00:00 3.7 7 Sudoeste 17 Sudoeste 0 -- -- 100
2020-01-17 03:00:00 3.8 5 Sur 18 Sudoeste 0 -- -- 100
2020-01-17 02:00:00 4.2 7 Sudoeste 22 Sur 0 -- -- 100
2020-01-17 01:00:00 4.4 9 Sur 23 Sudoeste 0 -- -- 100
2020-01-17 00:00:00 4.2 6 Sur 23 Sur 0 -- -- 99
2020-01-16 23:00:00 4.1 12 Sur 32 Sur 0.4 -- -- 96
2020-01-16 22:00:00 4.1 11 Sudeste 34 Sudeste 2.2 -- -- 96
2020-01-16 21:00:00 4.9 11 Sudeste 37 Sur 0.4 -- -- 86
2020-01-16 20:00:00 5.2 12 Sur 33 Sudeste 0 -- -- 83
2020-01-16 19:00:00 4.5 12 Sudeste 26 Este 0 -- -- 94
2020-01-16 18:00:00 5.4 12 Sudeste 30 Sudeste 0 -- -- 88
2020-01-16 17:00:00 6.3 14 Sudeste 34 Sudeste 0 -- -- 88
2020-01-16 16:00:00 7.4 13 Sudeste 36 Este 0 -- -- 83
2020-01-16 15:00:00 8 13 Sudeste 35 Sudeste 0 -- -- 77
2020-01-16 14:00:00 7.8 12 Sudeste 30 Este 0 -- -- 75
2020-01-16 13:00:00 7.6 11 Sudeste 32 Sur 0 -- -- 83
2020-01-16 12:00:00 6.8 9 Sudeste 30 Sudeste 0 -- -- 92
2020-01-16 11:00:00 5.6 8 Sudeste 27 Sudeste 0 -- -- 98
2020-01-16 10:00:00 4.6 6 Sudeste 22 Sudeste 0 -- -- 100
2020-01-16 09:00:00 4.8 9 Este 25 Este 0 -- -- 100
2020-01-16 08:00:00 4.8 11 Este 24 Este 0.2 -- -- 100
2020-01-16 07:00:00 5.1 10 Sudeste 25 Este 1.4 -- -- 100
2020-01-16 06:00:00 5.1 8 Sudeste 34 Este 0 -- -- 100
2020-01-16 05:00:00 4.8 12 Este 29 Este 0.6 -- -- 100
2020-01-16 04:00:00 5.1 11 Este 24 Este 0.6 -- -- 100
2020-01-16 03:00:00 5.2 8 Este 21 Este 1.6 -- -- 100
2020-01-16 02:00:00 4.9 9 Este 21 Este 0 -- -- 100
2020-01-16 01:00:00 5.2 12 Este 24 Sudeste 1 -- -- 100
2020-01-16 00:00:00 5.5 7 Sudeste 18 Este 1 -- -- 100
2020-01-15 23:00:00 5.7 6 Este 21 Sudeste 0.6 -- -- 100
2020-01-15 22:00:00 5.9 9 Sudeste 21 Sudeste 1 -- -- 100
2020-01-15 21:00:00 5.8 8 Sudeste 21 Este 1.2 -- -- 100
2020-01-15 20:00:00 5.9 7 Sudeste 21 Sudeste 0 -- -- 100
2020-01-15 19:00:00 5.7 7 Sudeste 21 Sudeste 0 -- -- 100
2020-01-15 18:00:00 5.1 4 Sudeste 22 Sudeste 0 -- -- 100
2020-01-15 17:00:00 5.7 9 Sudeste 24 Sur 0 -- -- 100
2020-01-15 16:00:00 5.2 6 Sur 21 Sudeste 0.8 -- -- 100
2020-01-15 15:00:00 4.9 7 Sudeste 30 Sudoeste 1.4 -- -- 100
2020-01-15 14:00:00 4.6 8 Sur 28 Sur 2 -- -- 100
2020-01-15 13:00:00 4.4 8 Sur 23 Sur 3.6 -- -- 100
2020-01-15 12:00:00 4.2 12 Sur 35 Sur 4.8 -- -- 100
2020-01-15 11:00:00 3.7 13 Sudeste 32 Sudeste 1.2 -- -- 100
2020-01-15 10:00:00 3.2 13 Sur 37 Sudeste 0.6 -- -- 100
2020-01-15 09:00:00 3 11 Sur 33 Sur 1.6 -- -- 100
2020-01-15 08:00:00 2.7 11 Sudeste 35 Sudeste 2.2 -- -- 100
2020-01-15 07:00:00 2.9 11 Sudeste 33 Sudeste 0.2 -- -- 98
2020-01-15 06:00:00 2.9 12 Sudeste 39 Sudeste 0 -- -- 100
2020-01-15 05:00:00 2.7 15 Sur 37 Sur 0 -- -- 100
2020-01-15 04:00:00 3.2 13 Sur 43 Sudeste 0 -- -- 100
2020-01-15 03:00:00 3.3 10 Sur 36 Sudeste 0 -- -- 100
2020-01-15 02:00:00 3.4 15 Sur 36 Sudeste 0 -- -- 100
2020-01-15 01:00:00 3.3 9 Sur 26 Sur 0 -- -- 100
2020-01-15 00:00:00 3.2 10 Sudeste 28 Sudeste 0.2 -- -- 100
2020-01-14 23:00:00 3.3 12 Sudeste 28 Sudeste 0 -- -- 100
2020-01-14 22:00:00 3.3 10 Sudeste 31 Sur 0 -- -- 100
2020-01-14 21:00:00 3 8 Sudeste 21 Sudeste 0.6 -- -- 100
2020-01-14 20:00:00 2.5 7 Sudeste 22 Sudeste 0.8 -- -- 99
2020-01-14 19:00:00 2.6 7 Sudeste 21 Sur 0.2 -- -- 97
2020-01-14 18:00:00 3 5 Sur 15 Sur 0 -- -- 95
2020-01-14 17:00:00 3.4 6 Sur 14 Sudeste 0 -- -- 92
2020-01-14 16:00:00 4.1 5 Sur 18 Sur 0 -- -- 89
2020-01-14 15:00:00 4.3 9 Sur 18 Sur 0 -- -- 89
2020-01-14 14:00:00 3.6 6 Sur 13 Sur 0 -- -- 88
2020-01-14 13:00:00 4 4 Sudeste 17 Sudoeste 0 -- -- 83
2020-01-14 12:00:00 4.1 6 Sudoeste 14 Sudoeste 0 -- -- 86
2020-01-14 11:00:00 3.5 4 Sudoeste 10 Oeste 0 -- -- 88
2020-01-14 10:00:00 2.8 5 Sudoeste 15 Sudoeste 0 -- -- 89
2020-01-14 09:00:00 2.1 9 Sudoeste 17 Sudoeste 0 -- -- 91
2020-01-14 08:00:00 1.6 8 Sudoeste 19 Sudoeste 0 -- -- 92
2020-01-14 07:00:00 -0.6 7 Sudoeste 14 Sudoeste 0 -- -- 95
2020-01-14 06:00:00 -1.4 0 Calma 6 Sudoeste 0 -- -- 93
2020-01-14 05:00:00 -1 4 Sudoeste 7 Oeste 0 -- -- 89
2020-01-14 04:00:00 -1 0 Calma 2 Sudoeste 0 -- -- 77
2020-01-14 03:00:00 -1.2 0 Calma 4 Sur 0 -- -- 71
2020-01-14 02:00:00 -1.3 2 Este 7 Sur 0 -- -- 69
2020-01-14 01:00:00 -1.1 2 Este 6 Este 0 -- -- 51
2020-01-14 00:00:00 -1.3 2 Este 3 Este 0 -- -- 58
2020-01-13 23:00:00 -0.3 0 Calma 5 Este 0 -- -- 82
2020-01-13 22:00:00 -0.1 2 Este 5 Sudeste 0 -- -- 88
2020-01-13 21:00:00 0 2 Sudeste 5 Sudeste 0 -- -- 88
2020-01-13 20:00:00 0.7 3 Sudeste 6 Sur 0 -- -- 83
2020-01-13 19:00:00 1.4 3 Sudeste 8 Sur 0 -- -- 62
2020-01-13 18:00:00 4.2 3 Sur 8 Sudoeste 0 -- -- 59
2020-01-13 17:00:00 7.1 2 Sur 10 Sur 0 -- -- 41
2020-01-13 16:00:00 8.1 4 Sur 10 Sur 0 -- -- 34
2020-01-13 15:00:00 8 4 Oeste 10 Sur 0 -- -- 41
2020-01-13 14:00:00 8.1 6 Sur 12 Sudoeste 0 -- -- 34
2020-01-13 13:00:00 7.5 2 Este 9 Sudoeste 0 -- -- 28
2020-01-13 12:00:00 5.9 0 Calma 8 Este 0 -- -- 52
2020-01-13 11:00:00 3.9 5 Este 10 Este 0 -- -- 54
2020-01-13 10:00:00 2.3 0 Calma 9 Sudeste 0 -- -- 43
2020-01-13 09:00:00 1.8 3 Sudeste 11 Sudoeste 0 -- -- 49
2020-01-13 08:00:00 2.1 4 Este 15 Este 0 -- -- 50
2020-01-13 07:00:00 2.4 0 Calma 11 Este 0 -- -- 47
2020-01-13 06:00:00 2.5 6 Este 15 Sudeste 0 -- -- 46
2020-01-13 05:00:00 2.3 4 Sudeste 11 Sudeste 0 -- -- 47
2020-01-13 04:00:00 2.3 4 Sudeste 12 Sur 0 -- -- 39
2020-01-13 03:00:00 3.6 3 Sudeste 25 Este 0 -- -- 32
2020-01-13 02:00:00 4.7 11 Este 23 Este 0 -- -- 32
2020-01-13 01:00:00 5.1 7 Este 18 Este 0 -- -- 29
2020-01-13 00:00:00 5.3 2 Sudeste 17 Este 0 -- -- 26
2020-01-12 23:00:00 5.7 7 Este 15 Este 0 -- -- 26
2020-01-12 22:00:00 5.7 3 Este 9 Nordeste 0 -- -- 25
2020-01-12 21:00:00 4.9 2 Este 8 Este 0 -- -- 43
2020-01-12 20:00:00 4.1 2 Este 3 Sur 0 -- -- 58
2020-01-12 19:00:00 5.2 2 Norte 5 Noroeste 0 -- -- 51
2020-01-12 18:00:00 6.9 3 Norte 5 Norte 0 -- -- 54
2020-01-12 17:00:00 10 2 Noroeste 6 Noroeste 0 -- -- 46
2020-01-12 16:00:00 11.2 2 Sur 6 Noroeste 0 -- -- 39
2020-01-12 15:00:00 10.8 3 Noroeste 7 Noroeste 0 -- -- 32
2020-01-12 14:00:00 10.7 3 Noroeste 8 Noroeste 0 -- -- 26
2020-01-12 13:00:00 10.1 4 Noroeste 8 Sudoeste 0 -- -- 40
2020-01-12 12:00:00 9.3 3 Sur 8 Sudoeste 0 -- -- 39
2020-01-12 11:00:00 7.1 2 Este 8 Este 0 -- -- 29
2020-01-12 10:00:00 3.9 3 Norte 5 Norte 0 -- -- 32
2020-01-12 09:00:00 1.1 0 Calma 4 Noroeste 0 -- -- 32
2020-01-12 08:00:00 1.3 2 Nordeste 6 Norte 0 -- -- 35
2020-01-12 07:00:00 1.2 4 Noroeste 10 Norte 0 -- -- 34
2020-01-12 06:00:00 1.4 4 Nordeste 6 Noroeste 0 -- -- 42
2020-01-12 05:00:00 0.8 2 Norte 5 Norte 0 -- -- 52
2020-01-12 04:00:00 0.7 3 Noroeste 5 Noroeste 0 -- -- 53
2020-01-12 03:00:00 1.1 2 Sudeste -- -- 0 -- -- 51
2020-01-12 02:00:00 1.3 2 Sur 3 Sudeste 0 -- -- 47
2020-01-12 01:00:00 1.1 2 Sudeste 3 Este 0 -- -- 44
2020-01-12 00:00:00 1.8 0 Calma 3 Sudeste 0 -- -- 47
2020-01-11 23:00:00 1.8 0 Calma 3 Sudeste 0 -- -- 48
2020-01-11 22:00:00 1.9 2 Sur 5 Sudoeste 0 -- -- 47
2020-01-11 21:00:00 2.3 0 Calma 4 Nordeste 0 -- -- 50
2020-01-11 20:00:00 2.4 3 Norte 4 Norte 0 -- -- 46
2020-01-11 19:00:00 3.8 0 Calma 9 Este 0 -- -- 34
2020-01-11 18:00:00 5.2 4 Este 12 Nordeste 0 -- -- 29
2020-01-11 17:00:00 7.3 4 Este 15 Este 0 -- -- 24
2020-01-11 16:00:00 7.9 6 Este 14 Este 0 -- -- 25
2020-01-11 15:00:00 9.3 3 Oeste 9 Oeste 0 -- -- 49
2020-01-11 14:00:00 8.4 3 Este 13 Nordeste 0 -- -- 52
2020-01-11 13:00:00 6.3 7 Este 20 Este 0 -- -- 46
2020-01-11 12:00:00 5.4 10 Este 21 Este 0 -- -- 48
2020-01-11 11:00:00 4.5 10 Este 29 Este 0 -- -- 51
2020-01-11 10:00:00 1.9 6 Este 15 Nordeste 0 -- -- 70
2020-01-11 09:00:00 0.1 5 Este 14 Este 0 -- -- 74
2020-01-11 08:00:00 -0.6 4 Noroeste 5 Noroeste 0 -- -- 65
2020-01-11 07:00:00 0.1 2 Sudeste 3 Sudeste 0 -- -- 66
2020-01-11 06:00:00 0.7 0 Calma 6 Este 0 -- -- 63
2020-01-11 05:00:00 1.1 2 Este 7 Este 0 -- -- 64
2020-01-11 04:00:00 1.6 3 Este 12 Este 0 -- -- 63
2020-01-11 03:00:00 1.6 3 Nordeste 12 Este 0 -- -- 64
2020-01-11 02:00:00 2 5 Este 9 Este 0 -- -- 59
2020-01-11 01:00:00 1.7 2 Nordeste 8 Este 0 -- -- 60
2020-01-11 00:00:00 1.8 3 Este 10 Este 0 -- -- 62
2020-01-10 23:00:00 1.7 3 Norte 10 Nordeste 0 -- -- 68
2020-01-10 22:00:00 2 4 Nordeste 11 Este 0 -- -- 68
2020-01-10 21:00:00 1.3 3 Nordeste 7 Noroeste 0 -- -- 71
2020-01-10 20:00:00 1.8 0 Calma 4 Norte 0 -- -- 70
2020-01-10 19:00:00 2.7 0 Calma 4 Sudoeste 0 -- -- 65
2020-01-10 18:00:00 4.6 0 Calma 13 Este 0 -- -- 59
2020-01-10 17:00:00 5.5 6 Este 15 Nordeste 0 -- -- 64
2020-01-10 16:00:00 6.9 4 Nordeste 14 Norte 0 -- -- 56
2020-01-10 15:00:00 7.4 3 Sur 15 Sudoeste 0 -- -- 59
2020-01-10 14:00:00 7.4 4 Este 13 Sudeste 0 -- -- 55
2020-01-10 13:00:00 7.2 4 Noroeste 11 Sudoeste 0 -- -- 49
2020-01-10 12:00:00 5.8 5 Sudoeste 13 Oeste 0 -- -- 59
2020-01-10 11:00:00 4.2 4 Sudeste 13 Este 0 -- -- 67
2020-01-10 10:00:00 2 3 Nordeste 21 Este 0 -- -- 80
2020-01-10 09:00:00 1.4 7 Este 18 Este 0 -- -- 83
2020-01-10 08:00:00 1.6 8 Este 18 Este 0 -- -- 88
2020-01-10 07:00:00 1.9 0 Calma 12 Este 0 -- -- 70
2020-01-10 06:00:00 1.8 2 Nordeste 25 Norte 0 -- -- 36
2020-01-10 05:00:00 1.3 7 Nordeste 25 Noroeste 0 -- -- 57
2020-01-10 04:00:00 2.3 10 Norte 21 Norte 0 -- -- 56
2020-01-10 03:00:00 3.5 11 Nordeste 30 Norte 0 -- -- 56
2020-01-10 02:00:00 3.3 12 Norte 54 Noroeste 0 -- -- 70
2020-01-10 01:00:00 3.3 25 Norte 45 Noroeste 0 -- -- 82
2020-01-10 00:00:00 3.6 12 Noroeste 37 Noroeste 0 -- -- 86
2020-01-09 23:00:00 4.9 16 Noroeste 35 Noroeste 0 -- -- 88
2020-01-09 22:00:00 5.6 15 Noroeste 27 Noroeste 0 -- -- 89
2020-01-09 21:00:00 7.1 19 Noroeste 35 Noroeste 0 -- -- 83
2020-01-09 20:00:00 7.7 18 Noroeste 44 Noroeste 0 -- -- 77
2020-01-09 19:00:00 7.9 22 Noroeste 44 Oeste 0 -- -- 78
2020-01-09 18:00:00 8.2 16 Noroeste 25 Noroeste 0 -- -- 77
2020-01-09 17:00:00 10.4 9 Noroeste 19 Oeste 0 -- -- 65
2020-01-09 16:00:00 12.1 4 Noroeste 13 Oeste 0 -- -- 58
2020-01-09 15:00:00 12.5 7 Oeste 20 Noroeste 0 -- -- 51
2020-01-09 14:00:00 12.6 14 Noroeste 28 Noroeste 0 -- -- 50
2020-01-09 13:00:00 12.4 11 Noroeste 24 Noroeste 0 -- -- 44
2020-01-09 12:00:00 11.8 9 Noroeste 14 Noroeste 0 -- -- 37
2020-01-09 11:00:00 9.4 3 Noroeste 10 Noroeste 0 -- -- 48
2020-01-09 10:00:00 6.2 0 Calma 10 Oeste 0 -- -- 57
2020-01-09 09:00:00 4.6 5 Sudoeste 8 Sudoeste 0 -- -- 52
2020-01-09 08:00:00 5.7 3 Oeste 6 Oeste 0 -- -- 38
2020-01-09 07:00:00 5.9 0 Calma 7 Este 0 -- -- 37
2020-01-09 06:00:00 6.1 2 Este 8 Este 0 -- -- 31
2020-01-09 05:00:00 7.4 2 Sudeste 9 Este 0 -- -- 22
2020-01-09 04:00:00 7.2 5 Este 12 Este 0 -- -- 25
2020-01-09 03:00:00 7.6 4 Este 11 Este 0 -- -- 27
2020-01-09 02:00:00 7.9 5 Este 15 Este 0 -- -- 24
2020-01-09 01:00:00 8.4 7 Este 18 Nordeste 0 -- -- 24
2020-01-09 00:00:00 8.5 7 Este 16 Este 0 -- -- 35
2020-01-08 23:00:00 8.7 9 Este 19 Nordeste 0 -- -- 30
2020-01-08 22:00:00 8.8 10 Este 20 Nordeste 0 -- -- 26
2020-01-08 21:00:00 8.9 10 Este 22 Nordeste 0 -- -- 25
2020-01-08 20:00:00 9.5 4 Sudeste 12 Sudeste 0 -- -- 28
2020-01-08 19:00:00 10.9 2 Este 7 Nordeste 0 -- -- 18
2020-01-08 18:00:00 12.9 2 Sudeste 9 Sur 0 -- -- 15
2020-01-08 17:00:00 14.9 0 Calma 10 Este 0 -- -- 13
2020-01-08 16:00:00 15.1 4 Nordeste 17 Este 0 -- -- 13
2020-01-08 15:00:00 15.7 6 Este 17 Este 0 -- -- 13
2020-01-08 14:00:00 15.3 9 Este 25 Este 0 -- -- 16
2020-01-08 13:00:00 14.4 13 Este 26 Este 0 -- -- 17
2020-01-08 12:00:00 13.8 13 Este 24 Este 0 -- -- 18
2020-01-08 11:00:00 12.5 11 Este 19 Este 0 -- -- 19
2020-01-08 10:00:00 9.9 4 Nordeste 13 Nordeste 0 -- -- 24
2020-01-08 09:00:00 8.8 3 Norte 9 Norte 0 -- -- 16
2020-01-08 08:00:00 9.1 4 Norte 9 Norte 0 -- -- 14
2020-01-08 07:00:00 9.1 4 Noroeste 9 Norte 0 -- -- 16
2020-01-08 06:00:00 9.3 3 Norte 5 Norte 0 -- -- 15
2020-01-08 05:00:00 9.5 0 Calma 5 Norte 0 -- -- 14
2020-01-08 04:00:00 8.9 2 Norte 6 Norte 0 -- -- 16
2020-01-08 03:00:00 8.5 4 Norte 6 Noroeste 0 -- -- 20
2020-01-08 02:00:00 9.5 4 Noroeste 6 Noroeste 0 -- -- 22
2020-01-08 01:00:00 10.1 0 Calma 3 Sudoeste 0 -- -- 19
2020-01-08 00:00:00 10.8 0 Calma 7 Este 0 -- -- 19
2020-01-07 23:00:00 10.5 0 Calma 4 Nordeste 0 -- -- 15
2020-01-07 22:00:00 10.9 0 Calma 6 Nordeste 0 -- -- 18
2020-01-07 21:00:00 11.3 2 Nordeste 10 Norte 0 -- -- 16
2020-01-07 20:00:00 11.7 7 Nordeste 16 Nordeste 0 -- -- 17
2020-01-07 19:00:00 11.4 8 Norte 14 Norte 0 -- -- 21
2020-01-07 18:00:00 13 4 Norte 11 Norte 0 -- -- 27
2020-01-07 17:00:00 15.2 5 Norte 14 Noroeste 0 -- -- 27
2020-01-07 16:00:00 16.5 9 Norte 17 Noroeste 0 -- -- 26
2020-01-07 15:00:00 16.5 7 Noroeste 13 Noroeste 0 -- -- 23
2020-01-07 14:00:00 16.3 5 Oeste 10 Oeste 0 -- -- 23
2020-01-07 13:00:00 16.1 5 Oeste 10 Oeste 0 -- -- 24
2020-01-07 12:00:00 14.6 6 Oeste 10 Oeste 0 -- -- 27
2020-01-07 11:00:00 11.6 4 Oeste 6 Oeste 0 -- -- 30
2020-01-07 10:00:00 8.8 4 Oeste 5 Oeste 0 -- -- 29
2020-01-07 09:00:00 6.8 0 Calma 2 Oeste 0 -- -- 33
2020-01-07 08:00:00 7.3 0 Calma 3 Sudeste 0 -- -- 32
2020-01-07 07:00:00 7.3 0 Calma 3 Nordeste 0 -- -- 32
2020-01-07 06:00:00 7.6 3 Norte 6 Este 0 -- -- 29
2020-01-07 05:00:00 8.7 2 Este 8 Este 0 -- -- 24
2020-01-07 04:00:00 8.3 3 Este 8 Este 0 -- -- 31
2020-01-07 03:00:00 7.3 2 Noroeste 8 Sudeste 0 -- -- 27
2020-01-07 02:00:00 7.6 0 Calma 8 Sudeste 0 -- -- 28
2020-01-07 01:00:00 8.4 6 Este 10 Este 0 -- -- 26
2020-01-07 00:00:00 7.1 0 Calma 4 Este 0 -- -- 41
2020-01-06 23:00:00 7.2 2 Este 8 Oeste 0 -- -- 43
2020-01-06 22:00:00 7.7 2 Nordeste 8 Este 0 -- -- 46
2020-01-06 21:00:00 7 3 Nordeste 8 Noroeste 0 -- -- 48
2020-01-06 20:00:00 6.2 3 Nordeste 6 Norte 0 -- -- 36
2020-01-06 19:00:00 7.1 2 Este 5 Este 0 -- -- 54
2020-01-06 18:00:00 9 0 Calma 5 Norte 0 -- -- 42
2020-01-06 17:00:00 11.4 2 Noroeste 12 Oeste 0 -- -- 43
2020-01-06 16:00:00 13.4 4 Sur 12 Sudoeste 0 -- -- 43
2020-01-06 15:00:00 14.6 6 Noroeste 10 Noroeste 0 -- -- 37
2020-01-06 14:00:00 14.7 4 Oeste 8 Noroeste 0 -- -- 23
2020-01-06 13:00:00 13.3 2 Norte 9 Oeste 0 -- -- 24
2020-01-06 12:00:00 12.1 3 Oeste 11 Oeste 0 -- -- 27
2020-01-06 11:00:00 9.4 5 Este 14 Este 0 -- -- 26
2020-01-06 10:00:00 7.1 4 Este 13 Este 0 -- -- 33